Tracking 33485 objects as of 15-Mar-2026
HD Live streaming from Space Station
objects crossing your sky now

STARLINK-36287

Track STARLINK-36287 now!
10-day predictions
STARLINK-36287 is classified as:


NORAD ID: 67708
Int'l Code: 2026-025R
Perigee: 350.6 km
Apogee: 351.8 km
Inclination: 97.3 °
Period: 91.4 minutes
Semi major axis: 6722 km
RCS: Unknown
Launch date: February 7, 2026
Source: United States (US)
Launch site: AIR FORCE WESTERN TEST RANGE (AFWTR)
Your satellite tracking list
Your tracking list is empty




NASA's NSSDC Master Catalog

Two Line Element Set (TLE):
1 67708U 26025R   26074.26331330  .00235247  00000-0  15339-2 0  9999
2 67708  97.2846 186.2127 0000884 102.8883 257.2481 15.75206541  6835
Source of the keplerian elements: AFSPC